Date String (YYYY-MM-DD hh:mm:ss) UTC,Instrument flags,Ambient pressure (hPa),Sample flow (lpm),Bypass flow (lpm),Sample temperature (°C),Ambient temperature (°C),ASC tube jacket temperature (°C),LED temperature (°C),Box temperature (°C),Sample RH (%),Span deviation,Mass concentration (μg/m³),Mass concentration (μg/m³),Mass concentration (μg/m³)
DateTimeUTC,F1_M11,P_M11,Q1_M11,Q2_M11,T1_M11,T2_M11,T3_M11,T4_M11,T5_M11,U1_M11,ZSPAN_M11,X0_M11,X2_M11,X1_M11
2022-12-31 20:00:00,,0813.1,5.00,0.00,25.3,24.1,00.0,34.0,27.0,11.4,0000.0,0015.02,0012.21,0011.92
2022-12-31 20:01:00,,0813.1,5.00,0.00,25.3,24.1,00.0,34.0,27.1,11.4,0000.0,0015.15,0012.32,0012.01
2022-12-31 20:02:00,,0813.1,5.00,0.00,25.3,24.1,00.0,34.0,27.1,11.4,0000.0,0015.24,0012.41,0012.09
2022-12-31 20:03:00,,0813.1,5.01,0.00,25.3,24.1,00.0,34.0,27.1,11.4,0000.0,0014.98,0012.50,0012.17
2022-12-31 20:04:00,,0813.1,5.00,0.00,25.3,24.1,00.0,34.0,27.1,11.5,0000.0,0015.03,0012.52,0012.19
2022-12-31 20:05:00,,0813.2,5.00,0.00,25.3,24.1,00.0,34.0,27.1,11.2,0000.0,0015.03,0012.52,0012.19
2022-12-31 20:06:00,,0813.2,5.00,0.00,25.3,24.1,00.0,34.0,27.1,11.5,0000.0,0015.08,0012.55,0012.21
2022-12-31 20:07:00,,0813.3,5.00,0.00,25.3,24.1,00.0,34.1,27.1,11.7,0000.0,0015.08,0012.56,0012.21
2022-12-31 20:08:00,,0813.2,4.99,0.00,25.3,24.1,00.0,34.1,27.1,11.6,0000.0,0015.33,0012.60,0012.22
2022-12-31 20:09:00,,0813.1,5.01,0.00,25.3,24.1,00.0,34.1,27.1,11.4,0000.0,0015.53,0012.64,0012.25
2022-12-31 20:10:00,,0813.1,4.99,0.00,25.4,24.1,00.0,34.1,27.1,11.3,0000.0,0015.59,0012.66,0012.25
2022-12-31 20:11:00,,0813.2,5.00,0.00,25.4,24.2,00.0,34.1,27.1,11.5,0000.0,0015.63,0012.68,0012.26
2022-12-31 20:12:00,,0813.1,5.00,0.00,25.4,24.2,00.0,34.1,27.1,11.2,0000.0,0015.58,0012.68,0012.27
2022-12-31 20:13:00,,0813.1,5.00,0.00,25.4,24.2,00.0,34.1,27.2,10.8,0000.0,0015.54,0012.70,0012.32
2022-12-31 20:14:00,,0813.1,5.00,0.00,25.4,24.2,00.0,34.1,27.2,10.7,0000.0,0015.57,0012.74,0012.38
2022-12-31 20:15:00,,0813.0,4.99,0.00,25.4,24.2,00.0,34.1,27.2,10.8,0000.0,0015.64,0012.82,0012.47
2022-12-31 20:16:00,,0813.1,5.00,0.00,25.4,24.2,00.0,34.1,27.2,10.7,0000.0,0015.70,0012.91,0012.57
2022-12-31 20:17:00,,0813.3,5.00,0.00,25.4,24.2,00.0,34.2,27.2,10.5,0000.0,0015.78,0012.95,0012.63
2022-12-31 20:18:00,,0813.2,5.00,0.00,25.4,24.2,00.0,34.2,27.2,10.5,0000.0,0016.06,0013.00,0012.70
2022-12-31 20:19:00,,0813.2,5.00,0.00,25.4,24.2,00.0,34.2,27.2,10.5,0000.0,0015.80,0013.01,0012.75
2022-12-31 20:20:00,,0813.2,5.00,0.00,25.4,24.2,00.0,34.2,27.2,10.3,0000.0,0015.58,0012.98,0012.74
2022-12-31 20:21:00,,0813.2,5.00,0.00,25.5,24.2,00.0,34.2,27.2,10.8,0000.0,0015.53,0012.96,0012.74
2022-12-31 20:22:00,,0813.2,4.99,0.00,25.4,24.2,00.0,34.2,27.2,10.8,0000.0,0015.48,0012.97,0012.76
2022-12-31 20:23:00,,0813.2,5.00,0.00,25.5,24.2,00.0,34.2,27.2,10.5,0000.0,0015.60,0012.98,0012.76
2022-12-31 20:24:00,,0813.3,5.01,0.00,25.5,24.2,00.0,34.2,27.2,10.3,0000.0,0015.86,0012.94,0012.70
2022-12-31 20:25:00,,0813.3,5.01,0.00,25.5,24.2,00.0,34.2,27.2,10.3,0000.0,0015.78,0012.84,0012.62
2022-12-31 20:26:00,,0813.4,5.00,0.00,25.5,24.2,00.0,34.2,27.2,10.7,0000.0,0015.77,0012.75,0012.53
2022-12-31 20:27:00,,0813.5,5.00,0.00,25.5,24.2,00.0,34.2,27.2,10.9,0000.0,0015.86,0012.73,0012.49
2022-12-31 20:28:00,,0813.6,5.00,0.00,25.5,24.1,00.0,34.2,27.2,10.5,0000.0,0015.67,0012.68,0012.45
2022-12-31 20:29:00,,0813.6,5.00,0.00,25.5,24.1,00.0,34.2,27.1,10.6,0000.0,0015.53,0012.62,0012.38
2022-12-31 20:30:00,,0813.6,5.00,0.00,25.5,24.1,00.0,34.2,27.2,10.7,0000.0,0015.56,0012.59,0012.35
2022-12-31 20:31:00,,0813.6,5.00,0.00,25.5,24.1,00.0,34.2,27.2,10.6,0000.0,0015.51,0012.56,0012.32
2022-12-31 20:32:00,,0813.5,5.00,0.00,25.5,24.1,00.0,34.2,27.2,10.8,0000.0,0015.55,0012.53,0012.30
2022-12-31 20:33:00,,0813.5,5.00,0.00,25.5,24.1,00.0,34.2,27.2,11.0,0000.0,0015.89,0012.51,0012.28
2022-12-31 20:34:00,,0813.5,5.00,0.00,25.5,24.1,00.0,34.2,27.2,10.8,0000.0,0015.95,0012.35,0012.14
2022-12-31 20:35:00,,0813.7,5.01,0.00,25.5,24.1,00.0,34.3,27.2,11.2,0000.0,0015.53,0012.26,0012.04
2022-12-31 20:36:00,,0813.7,5.02,0.00,25.5,24.1,00.0,34.3,27.2,11.4,0000.0,0015.46,0012.21,0011.97
2022-12-31 20:37:00,,0814.1,5.00,0.00,25.5,24.1,00.0,34.3,27.2,11.6,0000.0,0015.34,0012.17,0011.91
2022-12-31 20:38:00,,0813.8,4.99,0.00,25.5,24.1,00.0,34.3,27.2,11.1,0000.0,0015.03,0012.04,0011.80
2022-12-31 20:39:00,,0813.6,5.00,0.00,25.5,24.1,00.0,34.3,27.2,11.0,0000.0,0014.99,0011.94,0011.70
2022-12-31 20:40:00,,0813.5,5.00,0.00,25.5,24.1,00.0,34.3,27.2,11.2,0000.0,0014.77,0011.82,0011.58
2022-12-31 20:41:00,,0813.5,5.00,0.00,25.5,24.1,00.0,34.3,27.2,11.4,0000.0,0014.57,0011.73,0011.48
2022-12-31 20:42:00,,0813.5,4.99,0.00,25.5,24.1,00.0,34.3,27.2,11.5,0000.0,0014.55,0011.68,0011.40
2022-12-31 20:43:00,,0813.5,5.00,0.00,25.5,24.1,00.0,34.3,27.2,11.7,0000.0,0014.35,0011.59,0011.31
2022-12-31 20:44:00,,0813.5,5.00,0.00,25.5,24.1,00.0,34.3,27.2,11.7,0000.0,0013.88,0011.46,0011.17
2022-12-31 20:45:00,,0813.4,5.00,0.00,25.5,24.1,00.0,34.3,27.2,11.9,0000.0,0013.59,0011.48,0011.17
2022-12-31 20:46:00,,0813.4,4.99,0.00,25.5,24.1,00.0,34.3,27.2,11.8,0000.0,0013.55,0011.46,0011.17
2022-12-31 20:47:00,,0813.3,5.01,0.00,25.5,24.1,00.0,34.3,27.3,11.7,0000.0,0013.45,0011.42,0011.15
2022-12-31 20:48:00,,0813.4,5.01,0.00,25.5,24.1,00.0,34.3,27.3,11.6,0000.0,0013.62,0011.39,0011.12
2022-12-31 20:49:00,,0813.5,5.00,0.00,25.5,24.1,00.0,34.3,27.3,11.7,0000.0,0013.89,0011.37,0011.08
2022-12-31 20:50:00,,0813.5,5.01,0.00,25.5,24.1,00.0,34.3,27.2,11.6,0000.0,0013.78,0011.32,0011.04
2022-12-31 20:51:00,,0813.5,5.00,0.00,25.5,24.1,00.0,34.3,27.2,11.6,0000.0,0013.77,0011.32,0011.02
2022-12-31 20:52:00,,0813.5,5.00,0.00,25.5,24.1,00.0,34.3,27.3,11.5,0000.0,0013.76,0011.28,0010.97
2022-12-31 20:53:00,,0813.5,5.00,0.00,25.5,24.1,00.0,34.3,27.3,11.4,0000.0,0013.71,0011.20,0010.87
2022-12-31 20:54:00,,0813.4,5.00,0.00,25.5,24.1,00.0,34.3,27.3,11.5,0000.0,0013.81,0011.13,0010.80
2022-12-31 20:55:00,,0813.4,4.99,0.00,25.5,24.1,00.0,34.3,27.3,11.4,0000.0,0013.95,0011.07,0010.74
2022-12-31 20:56:00,,0813.4,5.00,0.00,25.5,24.1,00.0,34.3,27.3,11.5,0000.0,0014.32,0011.07,0010.69
2022-12-31 20:57:00,,0813.5,5.00,0.00,25.5,24.1,00.0,34.3,27.3,11.5,0000.0,0014.56,0011.04,0010.63
2022-12-31 20:58:00,,0813.4,5.00,0.00,25.5,24.1,00.0,34.3,27.3,11.4,0000.0,0014.76,0011.01,0010.58
2022-12-31 20:59:00,,0813.4,5.00,0.00,25.5,24.1,00.0,34.3,27.3,11.3,0000.0,0014.42,0010.93,0010.51
